Location: Camp Crooked Creek
(37.9149°N, 85.6607°W)
Time: 03:45:55
(UTC-05:00)

Amateur Radio Satellites - All Passes

Search period start: 11 February 2016 03:15
Search period end: 12 February 2016 03:15
Location: Camp Crooked Creek, 37.9149°N, 85.6607°W

Satellite Date Start Highest point End Downlink Frequencies (MHz)
Time Altitude Azimuth
AIST 2 11 Feb 03:16:38 03:19:31 18° 48° (NE) 03:22:22 435.215
AO-7 11 Feb 03:16:58 03:23:00 22° 94° (E) 03:28:58 29.400- 29.500
KKS-1 11 Feb 03:21:47 03:26:16 82° 74° (ENE) 03:30:44 437.445
MOZHAYETS 4 11 Feb 03:24:33 03:28:33 31° 70° (ENE) 03:32:35
PHONESAT 2.4 11 Feb 03:33:24 03:36:37 51° 2° (N) 03:39:49 2401.200-2431.200
ITUPSAT 1 11 Feb 03:35:01 03:36:22 11° 269° (W) 03:37:43 437.325
YUBILEINY 11 Feb 03:39:37 03:48:19 74° 93° (E) 03:57:08 435.215
DANDE 11 Feb 03:49:01 03:56:08 38° 289° (WNW) 04:03:53 436.750
Gurwin Techsat 1B 11 Feb 03:53:42 03:58:21 31° 292° (WNW) 04:02:58 435.225
JAS-2 11 Feb 04:07:31 04:10:35 15° 300° (WNW) 04:13:31 435.910
ITAMSAT 1 11 Feb 04:24:32 04:29:04 30° 292° (WNW) 04:33:35 435.822/435.867
SO-50 11 Feb 04:26:36 04:30:54 32° 113° (ESE) 04:35:16 436.795
Cosmos 2504 11 Feb 04:27:27 04:34:45 32° 84° (E) 04:42:17 435.465 / 435.565
M-CUBED/EXP-1 PRIME 11 Feb 04:32:04 04:35:02 26° 103° (ESE) 04:38:08 437.505
STARS 11 Feb 04:38:44 04:42:25 26° 264° (W) 04:46:05 437.465
AUBIESAT-1 11 Feb 04:40:39 04:43:44 28° 104° (ESE) 04:46:56 437.475
HORYU 2 11 Feb 04:42:02 04:46:08 36° 98° (E) 04:50:14 437.375
Cosmos 2491 11 Feb 04:52:10 04:57:44 19° 281° (W) 05:03:21 435.465 / 435.565
AIST 2 11 Feb 04:54:17 04:58:12 42° 245° (WSW) 05:02:05 435.215
MOZHAYETS 4 11 Feb 05:02:09 05:05:43 23° 265° (W) 05:09:20
AO-7 11 Feb 05:08:07 05:16:25 74° 291° (WNW) 05:24:40 29.400- 29.500
PHONESAT 2.4 11 Feb 05:10:43 05:14:00 80° 199° (SSW) 05:17:15 2401.200-2431.200
YUBILEINY 11 Feb 05:39:28 05:45:58 23° 293° (WNW) 05:52:32 435.215
CUBESAT XI-V 11 Feb 05:45:00 05:49:41 82° 258° (WSW) 05:54:26 437.345
SO-50 11 Feb 06:07:01 06:11:22 31° 309° (NW) 06:15:46 436.795
M-CUBED/EXP-1 PRIME 11 Feb 06:07:18 06:09:31 16° 295° (WNW) 06:11:48 437.505
CUTE-I 11 Feb 06:11:49 06:16:11 25° 95° (E) 06:20:31 437.470
AUBIESAT-1 11 Feb 06:15:54 06:18:08 16° 295° (WNW) 06:20:24 437.475
HORYU 2 11 Feb 06:19:15 06:22:26 20° 293° (WNW) 06:25:36 437.375
Cosmos 2504 11 Feb 06:19:22 06:27:40 53° 283° (WNW) 06:36:20 435.465 / 435.565
Cubesat XI-IV 11 Feb 06:25:37 06:30:28 33° 97° (E) 06:35:18 437.490
BRITE-PL 11 Feb 06:29:47 06:32:44 17° 91° (E) 06:35:33 437.365/2234.400
PRISM 11 Feb 06:46:29 06:48:43 14° 65° (ENE) 06:50:58 437.425
PHONESAT 2.4 11 Feb 06:48:41 06:50:56 17° 213° (SSW) 06:53:10 2401.200-2431.200
STRAND 1 11 Feb 06:57:45 07:02:50 72° 74° (ENE) 07:07:57 437.568
AO-7 11 Feb 07:03:19 07:07:48 16° 310° (NW) 07:12:15 29.400- 29.500
LilacSat-2 11 Feb 07:07:24 07:11:12 90° 121° (ESE) 07:14:59 437.200
O/OREOS (USA 219) 11 Feb 07:07:54 07:10:25 15° 99° (E) 07:12:56 437.305
GOMX 1 11 Feb 07:27:38 07:31:36 33° 97° (E) 07:35:24 467.674
CUTE-I 11 Feb 07:51:21 07:56:18 39° 290° (WNW) 08:01:14 437.470
HO-68 11 Feb 07:51:53 07:57:09 21° 93° (E) 08:02:22 435.675
Cubesat XI-IV 11 Feb 08:05:50 08:10:24 29° 293° (WNW) 08:14:58 437.490
BRITE-PL 11 Feb 08:07:07 08:11:28 39° 289° (WNW) 08:15:31 437.365/2234.400
PRISM 11 Feb 08:19:40 08:23:39 44° 260° (W) 08:27:40 437.425
JUGNU 11 Feb 08:22:01 08:23:03 10° 171° (S) 08:24:04 437.505
CANX-2 11 Feb 08:23:05 08:26:56 32° 97° (E) 08:30:47 2200.000
DOVE 4 11 Feb 08:39:09 08:43:22 71° 284° (WNW) 08:47:28 437.250
STRAND 1 11 Feb 08:40:41 08:42:29 12° 270° (W) 08:44:18 437.568
O/OREOS (USA 219) 11 Feb 08:45:05 08:49:22 45° 295° (WNW) 08:53:42 437.305
COMPASS 1 11 Feb 09:00:14 09:04:14 40° 98° (E) 09:08:13 437.405
GONETS M04 11 Feb 09:05:17 09:13:44 60° 91° (E) 09:22:15
GOMX 1 11 Feb 09:06:27 09:09:25 18° 294° (WNW) 09:12:19 467.674
Oscar 11 11 Feb 09:11:43 09:14:43 18° 94° (E) 09:17:41 145.826/435.025
CUTE 1.7 + AOD 2 11 Feb 09:13:08 09:17:26 74° 285° (WNW) 09:21:42 437.475
SEEDS 11 Feb 09:16:52 09:21:10 89° 263° (W) 09:25:26 437.485
UWE-3 11 Feb 09:17:40 09:21:04 23° 96° (E) 09:24:31 435.000/436.395/437.385
CUBEBUG 2 11 Feb 09:19:42 09:23:33 34° 98° (E) 09:27:28 437.445
CINEMA 3 11 Feb 09:22:39 09:26:46 70° 285° (WNW) 09:30:57 145.822/145.860
Cosmos 2499 11 Feb 09:23:50 09:31:26 36° 85° (E) 09:39:12 435.465 / 435.565
AAUSAT CUBESAT 2 11 Feb 09:27:19 09:31:32 71° 102° (ESE) 09:35:42 437.432
AO-85 11 Feb 09:28:04 09:32:03 22° 108° (ESE) 09:36:10 145.980
HO-68 11 Feb 09:38:12 09:45:19 66° 290° (WNW) 09:52:25 435.675
UNISAT 6 11 Feb 09:38:27 09:42:00 26° 70° (ENE) 09:45:32 437.425
CANX-2 11 Feb 09:59:26 10:02:34 20° 292° (WNW) 10:05:43 2200.000
POPSAT HIP 1 11 Feb 10:05:32 10:07:00 12° 64° (ENE) 10:08:27 437.405
ZACube-1 11 Feb 10:07:43 10:11:55 62° 101° (E) 10:16:11 437.345
JUGNU 11 Feb 10:08:42 10:11:10 13° 181° (S) 10:13:38 437.505
NANOSAT C BR1 11 Feb 10:08:55 10:10:42 12° 65° (ENE) 10:12:27 145.865
DUCHIFAT 1 11 Feb 10:09:47 10:11:25 12° 65° (ENE) 10:13:04 145.980
HUMSAT D 11 Feb 10:14:15 10:17:20 20° 95° (E) 10:20:26 437.325/437.525
FUNcube-1 11 Feb 10:15:57 10:20:11 75° 102° (ESE) 10:24:30 145.935
QB50P1 11 Feb 10:16:46 10:19:22 16° 66° (ENE) 10:21:57 145.935-145.965
ANTELSAT 11 Feb 10:22:34 10:26:53 84° 74° (ENE) 10:31:10 437.575/2403.000
PCSat 11 Feb 10:27:37 10:32:38 40° 111° (ESE) 10:37:41 145.827
TIGRISAT 11 Feb 10:28:54 10:33:13 87° 253° (WSW) 10:37:31 435.000
DELFI C3 11 Feb 10:29:18 10:33:22 79° 102° (ESE) 10:37:24 145.870
AIST 1 11 Feb 10:35:45 10:39:51 39° 92° (E) 10:43:58
COMPASS 1 11 Feb 10:36:56 10:39:28 16° 293° (WNW) 10:41:59 437.405
RS-15 11 Feb 10:39:27 10:48:57 35° 105° (ESE) 10:58:49 29.354- 29.394
Oscar 11 11 Feb 10:46:57 10:50:55 35° 288° (WNW) 10:54:53 145.826/435.025
UWE-3 11 Feb 10:53:58 10:57:29 26° 290° (WNW) 11:01:04 435.000/436.395/437.385
CUBEBUG 2 11 Feb 10:57:05 10:59:56 18° 292° (WNW) 11:02:51 437.445
DX 1 11 Feb 11:02:33 11:04:31 13° 92° (E) 11:06:28 434.975-435.025
BUGSAT 1 11 Feb 11:02:42 11:06:09 25° 70° (ENE) 11:09:34 437.445
GONETS M04 11 Feb 11:03:57 11:11:03 28° 290° (WNW) 11:18:13
AO-85 11 Feb 11:07:01 11:12:12 51° 305° (NW) 11:17:35 145.980
POLYITAN 1 11 Feb 11:08:10 11:12:21 63° 75° (ENE) 11:16:32 437.675
QB50P2 11 Feb 11:08:42 11:12:55 67° 75° (ENE) 11:17:07 145.880/145.840
ESTCUBE 1 11 Feb 11:10:36 11:13:46 18° 94° (E) 11:16:54 437.505/2401.250
UNISAT 6 11 Feb 11:15:08 11:18:40 24° 264° (W) 11:22:09 437.425
Cosmos 2499 11 Feb 11:15:52 11:24:14 49° 283° (WNW) 11:32:48 435.465 / 435.565
HO-68 11 Feb 11:29:26 11:31:40 12° 308° (NW) 11:33:53 435.675
POPSAT HIP 1 11 Feb 11:38:06 11:42:17 57° 259° (W) 11:46:27 437.405
NANOSAT C BR1 11 Feb 11:41:50 11:45:58 53° 260° (W) 11:50:06 145.865
DUCHIFAT 1 11 Feb 11:42:31 11:46:39 54° 259° (W) 11:50:48 145.980
ZACube-1 11 Feb 11:46:40 11:47:42 11° 295° (WNW) 11:48:45 437.345
SRMSAT 11 Feb 11:47:41 11:50:10 13° 178° (S) 11:52:39 437.500
HUMSAT D 11 Feb 11:49:19 11:52:59 30° 289° (WNW) 11:56:40 437.325/437.525
QB50P1 11 Feb 11:50:50 11:54:48 39° 261° (W) 11:58:49 145.935-145.965
50 SAT 11 Feb 11:57:34 12:01:22 72° 102° (ESE) 12:05:10 437.505
VELOX 1 11 Feb 12:00:53 12:05:15 58° 101° (E) 12:09:34 145.980
CUSAT 1 11 Feb 12:05:09 12:08:32 16° 62° (ENE) 12:11:25 437.405
PCSat 11 Feb 12:11:33 12:16:08 27° 308° (NW) 12:20:45 145.827
AIST 1 11 Feb 12:14:57 12:17:38 16° 288° (WNW) 12:20:19
AISAT 11 Feb 12:17:51 12:22:15 85° 286° (WNW) 12:26:38 437.250
UKube-1 11 Feb 12:21:41 12:26:01 89° 284° (WNW) 12:30:20 .
SPROUT 11 Feb 12:28:26 12:32:19 33° 98° (E) 12:36:09 437.525
JAS-2 11 Feb 12:29:50 12:36:04 29° 66° (ENE) 12:41:51 435.910
CUBEBUG 1 11 Feb 12:32:51 12:37:12 71° 285° (WNW) 12:41:29 437.445
TISAT 1 11 Feb 12:32:56 12:34:42 12° 92° (E) 12:36:28 437.305
DX 1 11 Feb 12:36:46 12:40:59 49° 287° (WNW) 12:45:09 434.975-435.025
BUGSAT 1 11 Feb 12:38:01 12:41:26 24° 264° (W) 12:44:51 437.445
ESTCUBE 1 11 Feb 12:46:29 12:50:41 38° 289° (WNW) 12:54:51 437.505/2401.250
Oscar 19 11 Feb 12:48:41 12:53:31 41° 71° (ENE) 12:58:21 437.125/150
RS-15 11 Feb 12:49:32 13:00:32 64° 306° (NW) 13:12:14 29.354- 29.394
DANDE 11 Feb 12:50:50 12:56:34 29° 67° (ENE) 13:01:08 436.750
AO-85 11 Feb 12:53:23 12:54:02 10° 325° (NW) 12:54:42 145.980
SO-50 11 Feb 13:00:01 13:03:37 20° 46° (NE) 13:07:07 436.795
Gurwin Techsat 1B 11 Feb 13:33:05 13:38:01 40° 70° (ENE) 13:42:58 435.225
SRMSAT 11 Feb 13:37:09 13:38:27 11° 189° (S) 13:39:43 437.500
VELOX 1 11 Feb 13:39:20 13:41:12 13° 296° (WNW) 13:43:04 145.980
CUSAT 1 11 Feb 13:46:15 13:51:26 45° 269° (W) 13:55:23 437.405
YUBILEINY 11 Feb 13:52:33 14:00:20 33° 72° (ENE) 14:08:02 435.215
ITUPSAT 1 11 Feb 13:56:31 14:00:03 20° 94° (E) 14:03:34 437.325
Cosmos 2491 11 Feb 13:59:39 14:04:49 17° 78° (ENE) 14:09:57 435.465 / 435.565
ITAMSAT 1 11 Feb 14:01:17 14:06:03 39° 70° (ENE) 14:10:52 435.822/435.867
BEESAT 11 Feb 14:03:33 14:07:27 24° 95° (E) 14:11:18 436.000
SPROUT 11 Feb 14:05:03 14:08:02 19° 293° (WNW) 14:11:01 437.525
TISAT 1 11 Feb 14:06:36 14:10:37 47° 287° (WNW) 14:14:36 437.305
JAS-2 11 Feb 14:13:12 14:20:43 55° 260° (W) 14:27:38 435.910
AO-7 11 Feb 14:14:11 14:20:57 28° 58° (ENE) 14:27:41 29.400- 29.500
Oscar 19 11 Feb 14:29:02 14:32:57 22° 266° (W) 14:36:55 437.125/150
ISS 11 Feb 14:33:12 14:35:24 17° 130° (SE) 14:37:36 145.825
DANDE 11 Feb 14:33:41 14:39:37 36° 273° (W) 14:44:13 436.750
SO-50 11 Feb 14:39:47 14:44:24 50° 244° (WSW) 14:48:51 436.795
SWISSCUBE 11 Feb 14:55:26 15:00:17 85° 284° (WNW) 15:05:05 437.505
RS-15 11 Feb 15:07:34 15:16:03 23° 335° (NNW) 15:24:53 29.354- 29.394
Gurwin Techsat 1B 11 Feb 15:13:56 15:18:04 23° 266° (W) 15:22:14 435.225
KKS-1 11 Feb 15:15:38 15:18:36 18° 94° (E) 15:21:34 437.445
M-CUBED/EXP-1 PRIME 11 Feb 15:18:05 15:21:08 26° 67° (ENE) 15:24:03 437.505
AUBIESAT-1 11 Feb 15:26:15 15:29:18 27° 67° (ENE) 15:32:14 437.475
ITUPSAT 1 11 Feb 15:33:32 15:38:00 39° 289° (WNW) 15:42:28 437.325
HORYU 2 11 Feb 15:38:40 15:42:23 27° 69° (ENE) 15:46:07 437.375
BEESAT 11 Feb 15:40:59 15:45:14 32° 290° (WNW) 15:49:28 436.000
ITAMSAT 1 11 Feb 15:41:34 15:45:37 23° 265° (W) 15:49:42 435.822/435.867
YUBILEINY 11 Feb 15:48:57 15:57:22 51° 271° (W) 16:05:43 435.215
Cosmos 2491 11 Feb 15:51:42 16:00:26 85° 277° (W) 16:09:12 435.465 / 435.565
AO-7 11 Feb 16:04:48 16:13:04 65° 255° (WSW) 16:21:24 29.400- 29.500
ISS 11 Feb 16:08:30 16:11:35 42° 325° (NW) 16:14:43 145.825
BEESAT 3 11 Feb 16:13:37 16:16:16 17° 110° (ESE) 16:18:55 437.485
Cosmos 2504 11 Feb 16:14:33 16:22:57 56° 78° (ENE) 16:30:43 435.465 / 435.565
STARS 11 Feb 16:29:00 16:33:21 63° 102° (ESE) 16:37:40 437.465
BEESAT 2 11 Feb 16:40:37 16:43:45 22° 112° (ESE) 16:46:54 435.950
KKS-1 11 Feb 16:51:12 16:55:17 37° 289° (WNW) 16:59:21 437.445
M-CUBED/EXP-1 PRIME 11 Feb 16:53:28 16:55:46 16° 259° (W) 16:58:01 437.505
MOZHAYETS 4 11 Feb 16:57:35 17:02:15 85° 280° (W) 17:06:54
AUBIESAT-1 11 Feb 17:01:39 17:03:53 16° 259° (W) 17:06:03 437.475
HORYU 2 11 Feb 17:15:18 17:18:54 24° 264° (W) 17:22:30 437.375
O/OREOS (USA 219) 11 Feb 17:17:52 17:21:35 23° 60° (ENE) 17:25:16 437.305
RS-15 11 Feb 17:27:20 17:34:58 18° 13° (NNE) 17:42:45 29.354- 29.394
CUTE-I 11 Feb 17:31:51 17:36:36 34° 69° (ENE) 17:41:24 437.470
BRITE-PL 11 Feb 17:37:33 17:41:49 22° 67° (ENE) 17:46:00 437.365/2234.400
CUBESAT XI-V 11 Feb 17:43:50 17:47:54 28° 96° (E) 17:51:54 437.345
Cubesat XI-IV 11 Feb 17:45:50 17:50:53 46° 71° (ENE) 17:55:59 437.490
ISS 11 Feb 17:47:53 17:48:44 11° 344° (NNW) 17:49:35 145.825
LilacSat-2 11 Feb 17:47:54 17:51:19 32° 72° (ENE) 17:54:44 437.200
BEESAT 3 11 Feb 17:50:03 17:53:44 35° 306° (NW) 17:57:26 437.485
Cosmos 2491 11 Feb 17:53:45 17:58:36 16° 297° (WNW) 18:03:29 435.465 / 435.565
AO-85 11 Feb 18:01:55 18:04:49 15° 40° (NE) 18:07:36 145.980
STARS 11 Feb 18:07:49 18:09:09 11° 297° (WNW) 18:10:31 437.465
Cosmos 2504 11 Feb 18:08:52 18:15:41 28° 278° (W) 18:22:09 435.465 / 435.565
BEESAT 2 11 Feb 18:17:58 18:21:29 29° 307° (NW) 18:25:03 435.950
HO-68 11 Feb 18:21:08 18:24:41 14° 54° (NE) 18:28:13 435.675
GOMX 1 11 Feb 18:32:55 18:37:48 36° 71° (ENE) 18:42:30 467.674
AIST 2 11 Feb 18:49:44 18:53:49 58° 117° (ESE) 18:57:55 435.215
O/OREOS (USA 219) 11 Feb 18:56:55 19:00:59 32° 256° (WSW) 19:05:02 437.305
STRAND 1 11 Feb 19:10:31 19:14:56 28° 96° (E) 19:19:18 437.568
CUTE-I 11 Feb 19:12:10 19:16:39 27° 264° (W) 19:21:10 437.470
BRITE-PL 11 Feb 19:14:25 19:19:54 49° 261° (W) 19:25:18 437.365/2234.400
CANX-2 11 Feb 19:14:58 19:17:54 19° 68° (ENE) 19:20:51 2200.000
PCSat 11 Feb 19:17:23 19:21:47 24° 51° (NE) 19:26:10 145.827
GONETS M04 11 Feb 19:18:14 19:25:26 27° 69° (ENE) 19:32:35
CUBESAT XI-V 11 Feb 19:21:16 19:25:10 26° 291° (WNW) 19:29:02 437.345
LilacSat-2 11 Feb 19:23:31 19:25:43 15° 267° (W) 19:27:55 437.200
Cubesat XI-IV 11 Feb 19:27:19 19:31:09 20° 266° (W) 19:35:02 437.490
RS-15 11 Feb 19:40:45 19:52:05 43° 45° (NE) 20:03:34 29.354- 29.394
AO-85 11 Feb 19:41:01 19:46:09 87° 237° (WSW) 19:50:47 145.980
DOVE 4 11 Feb 19:41:49 19:46:57 89° 278° (W) 19:51:48 437.250
COMPASS 1 11 Feb 19:49:55 19:53:08 22° 69° (ENE) 19:56:22 437.405
PRISM 11 Feb 20:03:24 20:06:58 26° 97° (E) 20:10:28 437.425
CUTE 1.7 + AOD 2 11 Feb 20:03:50 20:07:58 60° 75° (ENE) 20:12:08 437.475
HO-68 11 Feb 20:04:05 20:11:14 79° 73° (ENE) 20:18:27 435.675
Oscar 11 11 Feb 20:06:24 20:07:59 12° 64° (ENE) 20:09:35 145.826/435.025
SEEDS 11 Feb 20:06:47 20:10:47 47° 74° (ENE) 20:14:50 437.485
GOMX 1 11 Feb 20:11:24 20:15:52 26° 265° (W) 20:20:12 467.674
UWE-3 11 Feb 20:14:06 20:16:40 16° 67° (ENE) 20:19:11 435.000/436.395/437.385
AAUSAT CUBESAT 2 11 Feb 20:15:59 20:19:45 35° 72° (ENE) 20:23:34 437.432
CUBEBUG 2 11 Feb 20:16:39 20:20:05 24° 70° (ENE) 20:23:28 437.445
CINEMA 3 11 Feb 20:22:02 20:26:41 84° 75° (ENE) 20:31:06 145.822/145.860
AIST 2 11 Feb 20:30:17 20:32:40 15° 314° (NW) 20:35:04 435.215
STRAND 1 11 Feb 20:49:31 20:54:04 32° 291° (WNW) 20:58:35 437.568
CANX-2 11 Feb 20:49:44 20:53:31 33° 263° (W) 20:57:21 2200.000
PCSat 11 Feb 21:00:12 21:05:24 47° 248° (WSW) 21:10:33 145.827
ISS 11 Feb 21:01:50 21:04:02 17° 25° (NNE) 21:06:15 145.825
ZACube-1 11 Feb 21:02:01 21:05:53 37° 73° (ENE) 21:09:44 437.345
HUMSAT D 11 Feb 21:05:59 21:07:15 11° 65° (ENE) 21:08:32 437.325/437.525
Cosmos 2499 11 Feb 21:09:48 21:18:00 59° 79° (ENE) 21:25:31 435.465 / 435.565
FUNcube-1 11 Feb 21:09:52 21:13:51 44° 73° (ENE) 21:17:48 145.935
DELFI C3 11 Feb 21:13:58 21:17:34 34° 72° (ENE) 21:21:12 145.870
GONETS M04 11 Feb 21:14:09 21:22:47 62° 268° (W) 21:31:25
COMPASS 1 11 Feb 21:25:04 21:28:34 26° 264° (W) 21:32:06 437.405
PRISM 11 Feb 21:38:53 21:42:09 22° 292° (WNW) 21:45:23 437.425
Oscar 11 11 Feb 21:39:22 21:43:36 58° 260° (W) 21:47:51 145.826/435.025
SEEDS 11 Feb 21:45:03 21:46:45 12° 269° (W) 21:48:29 437.485
UWE-3 11 Feb 21:48:49 21:52:49 39° 261° (W) 21:56:45 435.000/436.395/437.385
AAUSAT CUBESAT 2 11 Feb 21:52:47 21:55:22 16° 267° (W) 21:57:59 437.432
CUBEBUG 2 11 Feb 21:53:00 21:56:37 26° 264° (W) 22:00:09 437.445
RS-15 11 Feb 21:53:15 22:05:12 64° 247° (WSW) 22:17:13 29.354- 29.394
HO-68 11 Feb 21:55:15 21:59:37 17° 269° (W) 22:04:01 435.675
ESTCUBE 1 11 Feb 22:09:20 22:11:51 15° 65° (ENE) 22:14:21 437.505/2401.250
ANTELSAT 11 Feb 22:16:38 22:19:48 19° 94° (E) 22:23:00 437.575/2403.000
AIST 1 11 Feb 22:21:46 22:26:06 74° 265° (W) 22:30:22
TIGRISAT 11 Feb 22:22:38 22:25:59 21° 95° (E) 22:29:21 435.000
50 SAT 11 Feb 22:36:30 22:39:35 25° 71° (ENE) 22:42:42 437.505
ISS 11 Feb 22:37:33 22:40:47 70° 223° (SW) 22:44:00 145.825
HUMSAT D 11 Feb 22:38:25 22:42:24 54° 260° (W) 22:46:25 437.325/437.525
ZACube-1 11 Feb 22:39:48 22:42:19 15° 267° (W) 22:44:49 437.345
FUNcube-1 11 Feb 22:48:21 22:50:19 13° 268° (W) 22:52:17 145.935
DELFI C3 11 Feb 22:50:11 22:52:34 15° 267° (W) 22:54:59 145.870
VELOX 1 11 Feb 22:56:24 23:00:35 41° 72° (ENE) 23:04:47 145.980
POLYITAN 1 11 Feb 22:57:12 22:58:38 11° 92° (E) 23:00:03 437.675
QB50P2 11 Feb 22:57:31 22:59:12 12° 92° (E) 23:00:52 145.880/145.840
Cosmos 2499 11 Feb 23:04:03 23:10:23 25° 278° (W) 23:16:22 435.465 / 435.565
UNISAT 6 11 Feb 23:07:17 23:11:38 74° 101° (E) 23:16:05 437.425
AISAT 11 Feb 23:13:11 23:17:38 68° 75° (ENE) 23:22:05 437.250
UKube-1 11 Feb 23:14:15 23:18:31 61° 74° (ENE) 23:22:48 .
SPROUT 11 Feb 23:20:57 23:24:14 22° 68° (ENE) 23:27:30 437.525
POPSAT HIP 1 11 Feb 23:25:10 23:28:37 24° 96° (E) 23:32:04 437.405
PHONESAT 2.4 11 Feb 23:25:22 23:27:30 16° 146° (SSE) 23:29:37 2401.200-2431.200
CUBEBUG 1 11 Feb 23:26:36 23:31:01 75° 77° (ENE) 23:35:28 437.445
NANOSAT C BR1 11 Feb 23:28:25 23:31:58 26° 96° (E) 23:35:29 145.865
DUCHIFAT 1 11 Feb 23:28:55 23:32:24 25° 96° (E) 23:35:51 145.980
DX 1 11 Feb 23:30:03 23:34:25 74° 258° (WSW) 23:38:49 434.975-435.025
QB50P1 11 Feb 23:37:18 23:41:09 34° 98° (E) 23:44:59 145.935-145.965
ESTCUBE 1 11 Feb 23:43:48 23:48:11 51° 260° (W) 23:52:38 437.505/2401.250
ANTELSAT 11 Feb 23:52:38 23:56:34 34° 289° (WNW) 00:00:35 437.575/2403.000
TIGRISAT 11 Feb 23:58:51 00:02:40 30° 289° (WNW) 00:06:33 435.000
50 SAT 12 Feb 00:11:03 00:13:36 18° 266° (W) 00:16:09 437.505
RS-15 12 Feb 00:12:02 00:15:09 11° 266° (W) 00:18:17 29.354- 29.394
BUGSAT 1 12 Feb 00:20:50 00:24:46 52° 100° (E) 00:28:41 437.445
POLYITAN 1 12 Feb 00:30:38 00:34:44 51° 286° (WNW) 00:38:48 437.675
QB50P2 12 Feb 00:31:12 00:35:16 49° 286° (WNW) 00:39:19 145.880/145.840
VELOX 1 12 Feb 00:34:24 00:37:13 16° 267° (W) 00:40:03 145.980
UKube-1 12 Feb 00:54:10 00:54:55 10° 269° (W) 00:55:41 .
TISAT 1 12 Feb 00:56:05 01:00:18 84° 257° (WSW) 01:04:33 437.305
SPROUT 12 Feb 00:56:16 01:00:01 29° 263° (W) 01:03:48 437.525
POPSAT HIP 1 12 Feb 01:00:55 01:04:19 24° 291° (WNW) 01:07:43 437.405
PHONESAT 2.4 12 Feb 01:01:08 01:04:24 75° 160° (SSE) 01:07:41 2401.200-2431.200
ITUPSAT 1 12 Feb 01:01:57 01:05:22 20° 66° (ENE) 01:08:48 437.325
CUSAT 1 12 Feb 01:02:21 01:09:11 32° 87° (E) 01:16:00 437.405
BEESAT 2 12 Feb 01:02:22 01:02:48 10° 43° (NE) 01:03:13 435.950
Oscar 19 12 Feb 01:03:10 01:06:19 16° 92° (E) 01:09:26 437.125/150
NANOSAT C BR1 12 Feb 01:04:16 01:07:35 23° 291° (WNW) 01:10:53 145.865
DUCHIFAT 1 12 Feb 01:04:40 01:07:59 24° 291° (WNW) 01:11:19 145.980
BEESAT 12 Feb 01:08:32 01:12:17 24° 67° (ENE) 01:16:03 436.000
QB50P1 12 Feb 01:13:49 01:16:40 18° 293° (WNW) 01:19:30 145.935-145.965
JAS-2 12 Feb 01:26:52 01:30:43 19° 92° (E) 01:34:22 435.910
Gurwin Techsat 1B 12 Feb 01:51:54 01:55:32 18° 93° (E) 01:59:08 435.225
DANDE 12 Feb 01:53:38 02:00:55 45° 89° (E) 02:08:51 436.750
BUGSAT 1 12 Feb 01:58:24 01:59:41 11° 296° (WNW) 02:00:58 437.445
SWISSCUBE 12 Feb 01:59:58 02:04:44 89° 76° (ENE) 02:09:32 437.505
Cosmos 2491 12 Feb 02:04:26 02:12:43 45° 76° (ENE) 02:21:00 435.465 / 435.565
BEESAT 3 12 Feb 02:08:53 02:12:51 72° 59° (ENE) 02:16:46 437.485
KKS-1 12 Feb 02:12:55 02:15:17 14° 64° (ENE) 02:17:37 437.445
ITAMSAT 1 12 Feb 02:17:02 02:20:08 16° 92° (E) 02:23:14 435.822/435.867
BEESAT 2 12 Feb 02:37:16 02:41:17 86° 240° (WSW) 02:45:13 435.950
ITUPSAT 1 12 Feb 02:38:26 02:42:54 40° 261° (W) 02:47:26 437.325
PHONESAT 2.4 12 Feb 02:38:33 02:41:46 52° 357° (N) 02:44:59 2401.200-2431.200
Oscar 19 12 Feb 02:40:56 02:45:56 53° 288° (WNW) 02:50:53 437.125/150
CUSAT 1 12 Feb 02:43:17 02:51:05 55° 283° (WNW) 02:58:54 437.405
BEESAT 12 Feb 02:45:36 02:49:52 33° 262° (W) 02:54:12 436.000
YUBILEINY 12 Feb 02:51:11 02:59:07 40° 87° (E) 03:07:06 435.215
